Regional Weather Roundup
Issued by NWS Goodland, KS

Home | Current Version | Previous Version | Text Only | Print | Product List | Glossary Off
Versions: 1 2 3 4 5 6 7 8 9 10 11 12 13 14 15 16 17 18 19 20 21 22 23 24 25 26 27 28 29 30 31 32 33 34 35 36 37 38 39 40 41 42 43 44 45 46 47 48 49 50

000
ASUS43 KGLD 181208
RWRGLD

GOODLAND FORECAST AREA HOURLY WEATHER ROUNDUP
NATIONAL WEATHER SERVICE GOODLAND KS
600 AM MDT THU SEP 18 2014

...OFFICIAL OBSERVATIONS...

CITY           SKY/WX    TMP DP  RH WIND       PRES   REMARKS
GOODLAND KS    CLOUDY    63  63 100 E5        29.97R FOG
HILL CITY KS   CLOUDY    64  63  96 E12       29.94R FOG
IMPERIAL NEB   FOG       64  63  96 SE7       29.96R VSB 1/2
MCCOOK NEB     FOG       63  62  97 E7        29.95S VSB 3/4
AKRON CO       CLEAR     54  44  69 W9        30.00R
BURLINGTON CO  FOG       51  50  96 CALM      29.98S VSB 1/4
LIMON CO       CLEAR     46  40  79 N7        30.05S
$$

...UNOFFICIAL OBSERVATIONS...

CITY           SKY/WX    TMP DP  RH WIND       PRES   REMARKS
GOVE KS          N/A     67  32  27 MISG        N/A
SHARON SPRINGS   N/A     62  61  96 CALM        N/A
WAKEENEY KS      N/A     67  66  99 MISG        N/A
TRENTON NEB      N/A     62  32  32 E12         N/A
YUMA CO          N/A     48  45  90 CALM        N/A
$$


USA.gov is the U.S. government's official web portal to all federal, state and local government web resources and services.